{"data":{"norad_id":59068,"intl_designator":"2024-039T","name":"SITRO-AIS 27","alt_names":[],"object_type":"PAYLOAD","status":"ACTIVE","operator":null,"country":"CIS","launch_date":"2024-02-29","launch_site_code":"VOSTO","launch_vehicle":null,"mission":null,"orbit_class":"UNKNOWN","rcs_meters":null,"size_class":null,"mass_kg":null,"dimensions":null,"purposes":["tech_demo"],"wikipedia_slug":null,"has_3d_model":false,"image_url":null,"decayed_at":null,"tle_current":{"epoch":"2026-05-25T04:02:32.129088Z","epoch_age_seconds":56931,"freshness":"FRESH","line1":"1 59068U 24039T   26145.16842742  .00003478  00000+0  26984-3 0  9991","line2":"2 59068  95.3921 219.4394 0146113  48.4664 312.8987 14.93555860121300","mean_motion":14.9355586,"eccentricity":0.0146113,"inclination_deg":95.3921,"raan_deg":219.4394,"arg_perigee_deg":48.4664,"mean_anomaly_deg":312.8987,"bstar":0.00026984,"rev_number":12130,"period_min":96.414204420851,"perigee_km":485.09119397605,"apogee_km":688.62648134162,"semimajor_km":6964.9958376588,"source":"CELESTRAK","updated_at":"2026-05-25T13:38:25.534924Z"}}}